TimeEDT,TemperatureF,Dew PointF,Humidity,Sea Level PressureIn,VisibilityMPH,Wind Direction,Wind SpeedMPH,Gust SpeedMPH,PrecipitationIn,Events,Conditions,WindDirDegrees,DateUTC
12:10 AM,42.8,39.2,87,29.99,10.0,Calm,Calm,-,N/A,,Scattered Clouds,0,2012-10-03 04:10:00
12:54 AM,41.0,39.9,96,29.99,2.5,Calm,Calm,-,N/A,,Scattered Clouds,0,2012-10-03 04:54:00
12:57 AM,41.0,39.2,93,29.98,4.0,Calm,Calm,-,N/A,,Mostly Cloudy,0,2012-10-03 04:57:00
1:33 AM,41.0,39.2,93,29.99,1.5,Calm,Calm,-,N/A,,Overcast,0,2012-10-03 05:33:00
1:44 AM,41.0,39.2,93,29.99,3.0,Calm,Calm,-,N/A,,Overcast,0,2012-10-03 05:44:00
1:54 AM,41.0,39.9,96,30.00,8.0,Calm,Calm,-,N/A,,Overcast,0,2012-10-03 05:54:00
2:28 AM,41.0,39.2,93,29.99,1.8,Calm,Calm,-,N/A,,Overcast,0,2012-10-03 06:28:00
2:54 AM,41.0,41.0,100,29.99,0.5,Calm,Calm,-,N/A,Fog,Fog,0,2012-10-03 06:54:00
3:08 AM,41.0,41.0,100,29.98,2.5,Calm,Calm,-,N/A,,Overcast,0,2012-10-03 07:08:00
3:23 AM,41.0,39.2,93,29.98,0.8,Calm,Calm,-,N/A,,Overcast,0,2012-10-03 07:23:00
3:54 AM,42.1,41.0,96,29.99,0.5,Calm,Calm,-,N/A,Fog,Fog,0,2012-10-03 07:54:00
4:03 AM,42.8,41.0,93,29.98,0.2,Calm,Calm,-,N/A,Fog,Fog,0,2012-10-03 08:03:00
4:29 AM,42.8,42.8,100,29.99,0.8,Calm,Calm,-,N/A,,Overcast,0,2012-10-03 08:29:00
4:36 AM,42.8,42.8,100,29.99,1.0,Calm,Calm,-,N/A,,Overcast,0,2012-10-03 08:36:00
4:46 AM,42.8,41.0,93,29.99,0.8,Calm,Calm,-,N/A,,Overcast,0,2012-10-03 08:46:00
4:54 AM,42.1,42.1,100,30.00,1.5,Calm,Calm,-,N/A,,Overcast,0,2012-10-03 08:54:00
4:58 AM,42.8,42.8,100,29.99,3.0,Calm,Calm,-,N/A,,Overcast,0,2012-10-03 08:58:00
5:38 AM,42.8,42.8,100,29.99,1.5,Calm,Calm,-,N/A,,Overcast,0,2012-10-03 09:38:00
5:46 AM,42.8,42.8,100,29.99,0.5,Calm,Calm,-,N/A,Fog,Fog,0,2012-10-03 09:46:00
5:54 AM,43.0,43.0,100,30.00,0.2,Calm,Calm,-,N/A,Fog,Fog,0,2012-10-03 09:54:00
6:18 AM,44.6,44.6,100,29.99,0.5,Calm,Calm,-,N/A,Fog,Fog,0,2012-10-03 10:18:00
6:54 AM,44.1,44.1,100,30.01,1.8,Calm,Calm,-,N/A,,Overcast,0,2012-10-03 10:54:00
7:00 AM,44.6,44.6,100,30.00,3.0,Calm,Calm,-,N/A,,Overcast,0,2012-10-03 11:00:00
7:20 AM,44.6,44.6,100,30.00,1.8,WNW,3.5,-,N/A,,Overcast,290,2012-10-03 11:20:00
7:38 AM,44.6,44.6,100,30.00,2.5,Calm,Calm,-,N/A,,Overcast,0,2012-10-03 11:38:00
8:10 AM,48.2,46.4,93,30.00,2.0,Calm,Calm,-,N/A,,Overcast,0,2012-10-03 12:10:00
8:46 AM,46.4,46.4,100,30.01,1.8,Calm,Calm,-,0.00,,Overcast,0,2012-10-03 12:46:00
8:54 AM,48.0,48.0,100,30.03,1.8,Calm,Calm,-,0.00,,Overcast,0,2012-10-03 12:54:00
9:34 AM,51.8,51.8,100,30.02,4.0,Calm,Calm,-,N/A,,Overcast,0,2012-10-03 13:34:00
9:54 AM,52.0,52.0,100,30.03,6.0,Calm,Calm,-,N/A,,Mostly Cloudy,0,2012-10-03 13:54:00
10:54 AM,57.9,55.9,93,30.03,10.0,Calm,Calm,-,N/A,,Overcast,0,2012-10-03 14:54:00
11:54 AM,64.0,57.9,80,30.01,10.0,Calm,Calm,-,N/A,,Overcast,0,2012-10-03 15:54:00
12:54 PM,66.0,57.0,73,30.01,10.0,Variable,3.5,-,N/A,,Overcast,0,2012-10-03 16:54:00
1:54 PM,66.0,57.0,73,30.00,10.0,ESE,4.6,-,N/A,,Overcast,110,2012-10-03 17:54:00
2:54 PM,66.9,55.9,68,29.99,10.0,ENE,5.8,-,N/A,,Overcast,60,2012-10-03 18:54:00
3:54 PM,64.9,57.9,78,29.99,10.0,ESE,6.9,-,N/A,,Overcast,120,2012-10-03 19:54:00
4:45 PM,64.4,57.2,77,29.99,10.0,ESE,6.9,-,N/A,,Overcast,110,2012-10-03 20:45:00
4:54 PM,64.0,57.0,78,29.99,10.0,East,5.8,-,N/A,,Overcast,90,2012-10-03 20:54:00
5:30 PM,62.6,57.2,82,29.99,10.0,East,4.6,-,N/A,,Overcast,100,2012-10-03 21:30:00
5:54 PM,62.1,57.0,84,30.00,10.0,ESE,5.8,-,N/A,,Overcast,110,2012-10-03 21:54:00
6:11 PM,60.8,57.2,88,29.99,10.0,ESE,4.6,-,N/A,,Overcast,120,2012-10-03 22:11:00
6:54 PM,61.0,57.0,87,30.01,10.0,SE,4.6,-,N/A,,Overcast,130,2012-10-03 22:54:00
7:54 PM,60.1,57.0,90,30.01,10.0,SSE,3.5,-,N/A,,Overcast,150,2012-10-03 23:54:00
8:32 PM,60.8,57.2,88,30.00,10.0,Calm,Calm,-,N/A,,Overcast,0,2012-10-04 00:32:00
8:43 PM,60.8,57.2,88,30.01,10.0,Calm,Calm,-,N/A,,Overcast,0,2012-10-04 00:43:00
8:54 PM,60.1,57.0,90,30.02,10.0,Calm,Calm,-,N/A,,Overcast,0,2012-10-04 00:54:00
9:48 PM,59.0,57.2,94,30.02,2.0,SSE,4.6,-,0.02,Rain,Heavy Rain,160,2012-10-04 01:48:00
9:54 PM,57.9,57.9,100,30.03,1.2,SSE,5.8,-,0.09,Rain,Heavy Rain,160,2012-10-04 01:54:00
10:07 PM,57.2,57.2,100,30.01,2.5,SSE,3.5,-,0.05,Rain,Light Rain,160,2012-10-04 02:07:00
10:13 PM,57.2,57.2,100,30.01,3.0,SSE,4.6,-,0.05,Rain,Light Rain,160,2012-10-04 02:13:00
10:43 PM,59.0,57.2,94,30.01,4.0,Calm,Calm,-,0.06,,Overcast,0,2012-10-04 02:43:00
10:54 PM,57.9,57.9,100,30.02,4.0,Calm,Calm,-,0.06,,Overcast,0,2012-10-04 02:54:00
11:21 PM,57.2,57.2,100,30.02,2.0,Calm,Calm,-,0.00,Rain,Light Rain,0,2012-10-04 03:21:00
11:27 PM,57.2,57.2,100,30.02,2.5,Calm,Calm,-,0.00,Rain,Light Rain,0,2012-10-04 03:27:00
11:31 PM,57.2,57.2,100,30.01,3.0,Calm,Calm,-,0.00,Rain,Light Rain,0,2012-10-04 03:31:00
11:39 PM,57.2,57.2,100,30.01,4.0,South,3.5,-,0.00,,Overcast,170,2012-10-04 03:39:00
11:54 PM,57.9,57.9,100,30.02,3.0,South,3.5,-,0.00,,Overcast,170,2012-10-04 03:54:00